FW4059 Weather Reports


time (UTC)temp
F
wind
direction
speed
knots
gust
knots
rain 1hr
in
rain 24hr
in
rain mn
in
humidity
%
barometer
mb
20260507140047 48 108 0.0 1.7 0.00 0.00 0.00 76 1014.5
20260507134501 48 71 0.0 0.0 0.00 0.00 0.00 74 1014.5
20260507133019 47 118 0.0 0.9 0.00 0.00 0.00 78 1014.7
20260507131528 46 90 0.0 0.0 0.00 0.00 0.00 81 1014.7
20260507130050 45 278 0.0 0.9 0.00 0.00 0.00 87 1014.8
20260507124513 44 228 0.0 0.9 0.00 0.00 0.00 97 1014.8
20260507123024 41 106 0.0 0.0 0.00 0.00 0.00 98 1014.9
20260507121553 40 230 0.0 0.0 0.00 0.00 0.00 98 1014.8
20260507120011 39 230 0.0 0.0 0.00 0.00 0.00 97 1014.9
20260507114539 38 230 0.0 0.0 0.00 0.00 0.00 97 1014.8
20260507113056 39 230 0.0 0.9 0.00 0.00 0.00 97 1015.2
20260507111517 40 226 0.0 0.0 0.00 0.00 0.00 98 1015.1
20260507110039 39 228 0.0 0.0 0.00 0.00 0.00 98 1014.9
20260507104552 38 177 0.0 0.0 0.00 0.00 0.00 98 1014.5
20260507103017 38 177 0.0 0.0 0.00 0.00 0.00 98 1014.4
20260507101528 38 177 0.0 0.0 0.00 0.00 0.00 97 1013.9
20260507100050 39 177 0.0 0.0 0.00 0.00 0.00 98 1014.0
20260507094512 39 250 0.0 0.0 0.00 0.00 0.00 98 1014.3
20260507093028 39 250 0.0 0.0 0.00 0.00 0.00 97 1014.4
20260507091554 39 250 0.0 0.0 0.00 0.00 0.00 98 1014.2
20260507090027 39 250 0.0 0.0 0.00 0.00 0.00 98 1014.1
20260507084551 39 250 0.0 0.0 0.00 0.00 0.00 98 1014.0
20260507083014 39 250 0.0 0.0 0.00 0.00 0.00 98 1014.3
20260507081534 38 250 0.0 0.0 0.00 0.00 0.00 98 1014.4
20260507080005 38 250 0.0 0.0 0.00 0.00 0.00 98 1014.3
20260507074522 38 250 0.0 0.0 0.00 0.00 0.00 97 1014.1
20260507073049 38 250 0.0 0.0 0.00 0.00 0.00 97 1013.9
20260507071529 38 250 0.0 0.0 0.00 0.00 0.00 97 1014.0
20260507070033 38 250 0.0 0.0 0.00 0.00 0.00 97 1014.2
20260507064549 39 240 0.0 0.0 0.00 0.00 0.00 97 1014.0
20260507063010 39 239 0.0 0.0 0.00 0.00 0.00 97 1014.2
20260507061520 40 240 0.0 0.0 0.00 0.00 0.00 97 1014.2
20260507060044 40 239 0.0 0.0 0.00 0.00 0.00 97 1014.4
20260507054510 40 239 0.0 0.0 0.00 0.00 0.00 97 1014.4
20260507053030 40 240 0.0 0.0 0.00 0.00 0.00 97 1014.5
20260507051600 40 239 0.0 0.0 0.00 0.00 0.00 97 1014.6
20260507050006 40 239 0.0 0.0 0.00 0.00 0.00 97 1014.6
20260507044531 40 239 0.0 0.0 0.00 0.00 0.00 97 1014.7
20260507043051 41 239 0.0 0.0 0.00 0.00 0.00 97 1014.8
20260507041514 41 239 0.0 0.0 0.00 0.00 0.00 97 1014.9
20260507040127 41 240 0.0 0.0 0.00 0.00 0.00 97 1014.8
20260507034529 41 239 0.0 0.0 0.00 0.00 0.00 97 1014.8
20260507033039 41 239 0.0 0.0 0.00 0.00 0.00 97 1014.7
20260507031541 41 240 0.0 0.0 0.00 0.00 0.00 97 1014.8
20260507030046 41 239 0.0 0.0 0.00 0.00 0.00 97 1014.8
20260507024503 42 239 0.0 0.0 0.00 0.00 0.00 97 1014.7
20260507023027 42 239 0.0 0.0 0.00 0.00 0.00 97 1014.6
20260507021544 42 240 0.0 0.0 0.00 0.00 0.00 97 1014.7
20260507020006 42 240 0.0 0.0 0.00 0.00 0.00 97 1015.1
20260507014525 42 240 0.0 0.0 0.00 0.00 0.00 97 1015.0
20260507013048 42 239 0.0 0.0 0.00 0.00 0.00 96 1014.9
20260507011552 43 240 0.0 0.0 0.00 0.00 0.00 96 1014.7
20260507010006 43 239 0.0 0.0 0.00 0.00 0.00 96 1014.4
20260507004538 43 239 0.0 0.0 0.00 0.00 0.00 96 1014.3
20260507003055 43 239 0.0 0.0 0.00 0.00 0.00 96 1014.3
20260507001513 43 239 0.0 0.0 0.00 0.00 0.00 95 1014.3
20260507000038 44 239 0.0 0.0 0.00 0.00 0.00 95 1014.1
20260506234557 44 239 0.0 0.0 0.00 0.00 0.00 93 1014.0
20260506233020 46 266 0.0 0.9 0.00 0.00 0.00 91 1014.1
20260506231541 46 352 0.0 0.9 0.00 0.00 0.00 95 1013.8
20260506230007 44 352 0.0 1.7 0.00 0.00 0.00 96 1013.7
20260506224526 43 311 0.0 0.9 0.00 0.00 0.00 97 1013.4
20260506223051 43 11 0.0 1.7 0.00 0.00 0.00 97 1013.4
20260506221511 43 352 0.0 2.6 0.00 0.00 0.00 97 1013.0
20260506220038 42 5 0.0 2.6 0.00 0.00 0.00 97 1013.1
20260506214551 42 300 0.0 1.7 0.00 0.00 0.00 97 1013.1
20260506213005 42 341 0.0 3.5 0.00 0.00 0.00 96 1012.7
20260506211513 42 328 0.9 3.5 0.00 0.00 0.00 96 1012.3
20260506210034 44 342 1.7 7.0 0.00 0.00 0.00 95 1012.1
20260506204550 47 271 0.9 2.6 0.00 0.00 0.00 96 1011.7
20260506203018 48 288 0.0 5.2 0.00 0.00 0.00 94 1011.3
20260506201533 50 352 0.0 0.0 0.00 0.00 0.00 93 1011.1
20260506194513 52 287 0.0 0.9 0.00 0.00 0.00 88 1011.0
20260506193038 52 8 0.0 0.9 0.00 0.00 0.00 89 1011.0
20260506191501 52 243 0.0 0.9 0.00 0.00 0.00 90 1011.0
20260506190023 51 277 0.0 0.9 0.00 0.00 0.00 90 1010.9
20260506184539 51 269 0.0 0.9 0.00 0.00 0.00 90 1011.1
20260506183111 52 145 0.0 1.7 0.00 0.00 0.00 91 1011.2
20260506181519 51 122 0.9 1.7 0.00 0.00 0.00 93 1011.0
20260506180029 50 207 0.0 1.7 0.00 0.00 0.00 95 1011.1
20260506174544 48 101 0.0 0.9 0.00 0.00 0.00 96 1011.1
20260506173009 48 124 0.0 0.0 0.00 0.00 0.00 96 1011.4
20260506171531 48 124 0.0 0.9 0.00 0.00 0.00 96 1011.4
20260506170046 47 124 0.0 0.9 0.00 0.00 0.00 97 1011.2
20260506164509 47 70 0.0 2.6 0.00 0.00 0.00 97 1011.1
20260506163032 46 94 0.0 2.6 0.00 0.00 0.00 97 1011.0
20260506161553 47 99 0.0 0.9 0.00 0.00 0.00 98 1011.4
20260506160014 47 111 0.0 0.0 0.00 0.00 0.00 98 1011.2
20260506154541 47 103 0.0 0.0 0.00 0.00 0.00 98 1011.1
20260506153009 46 89 0.0 0.9 0.00 0.00 0.00 98 1011.1
20260506151529 47 82 0.0 1.7 0.00 0.00 0.00 98 1010.9
20260506150057 46 84 0.0 0.9 0.00 0.00 0.00 98 1011.0
20260506144515 46 72 0.0 1.7 0.00 0.00 0.00 98 1010.8
20260506143039 46 65 0.0 0.9 0.00 0.00 0.00 98 1010.8
20260506141556 45 103 0.0 0.9 0.00 0.00 0.00 98 1010.9